East Milton, MA

10:10 AM EST on January 22, 2018 (GMT -0500)
East Milton

Weather History for KMQE - November, 2011

Change the Weather History Date:

Wednesday, November 30, 2011

  Actual Average (KOWD) Record (KOWD)
Temperature  
Mean Temperature 52 °F -  
Max Temperature 62 °F 44 °F 69 °F (2006)
Min Temperature 41 °F 26 °F 17 °F (1996)
Degree Days  
Heating Degree Days 14    
Growing Degree Days 2 (Base 50)    
Moisture  
Dew Point 40 °F    
Average Humidity 71    
Maximum Humidity 100    
Minimum Humidity 50    
Precipitation  
Precipitation 0.74 in - - ()
Sea Level Pressure  
Sea Level Pressure 29.70 in    
Wind  
Wind Speed 20 mph (SW)    
Max Wind Speed 30 mph    
Max Gust Speed 46 mph    
Averages and records for this station are not official NWS values.
T = Trace of Precipitation, MM = Missing Value Source: NWS Daily Summary

Daily Weather History Graph

Daily Weather History Graph

Search for Another Location

Airport or City:

Trip Planner

Search our weather history database for the weather conditions in past years. The results will help you decide how hot, cold, wet, or windy it might be!

Date:

Astronomy

Nov. 30, 2011 Rise Set
Actual Time 6:52 AM EST 4:13 PM EST
Civil Twilight 6:20 AM EST 4:44 PM EST
Nautical Twilight 5:46 AM EST 5:19 PM EST
Astronomical Twilight 5:12 AM EST 5:53 PM EST
Moon 11:05 AM EST (11/30) 10:11 PM EST (11/30)
Length of Visible Light 10h 23m
Length of Day
9h 21m
Waxing Crescent, 33% of the Moon is Illuminated
Nov 30
Waxing Crescent
Dec 2
First Quarter
Dec 10
Full
Dec 17
Last Quarter
Dec 24
New

Hourly Weather History & Observations

Time (EST) Temp. Windchill Dew Point Humidity Pressure Visibility Wind Dir Wind Speed Gust Speed Precip Events Conditions
12:54 AM 62.1 °F - 62.1 °F 100% 29.65 in - SSE 29.9 mph 46.0 mph 0.21 in   Unknown
1:54 AM 62.1 °F - 62.1 °F 100% 29.64 in - South 26.5 mph 41.4 mph 0.41 in   Unknown
3:54 AM 54.0 °F - 53.1 °F 97% 29.66 in - SW 21.9 mph 27.6 mph 0.07 in   Unknown
4:54 AM 51.1 °F - 48.9 °F 92% 29.65 in - SSW 17.3 mph 24.2 mph 0.05 in   Unknown
5:54 AM 50.0 °F - 48.0 °F 93% 29.65 in - South 17.3 mph 25.3 mph N/A   Unknown
6:54 AM 50.0 °F - 48.0 °F 93% 29.66 in - South 15.0 mph - N/A   Unknown
7:54 AM 48.9 °F - 45.0 °F 86% 29.67 in - SSW 16.1 mph 28.8 mph N/A   Unknown
8:54 AM 50.0 °F - 39.9 °F 68% 29.67 in - SSW 16.1 mph 31.1 mph N/A   Unknown
9:54 AM 51.1 °F - 37.0 °F 59% 29.67 in - SW 15.0 mph 27.6 mph N/A   Unknown
10:54 AM 53.1 °F - 37.9 °F 57% 29.65 in - SSW 21.9 mph 34.5 mph N/A   Unknown
11:54 AM 53.1 °F - 37.0 °F 55% 29.63 in - SW 13.8 mph 34.5 mph N/A   Unknown
12:54 PM 53.1 °F - 35.1 °F 50% 29.62 in - SW 19.6 mph 26.5 mph N/A   Unknown
1:54 PM 52.0 °F - 35.1 °F 53% 29.63 in - SW 18.4 mph 29.9 mph N/A   Unknown
2:54 PM 51.1 °F - 35.1 °F 54% 29.64 in - SW 13.8 mph 25.3 mph N/A   Unknown
3:54 PM 48.9 °F - 35.1 °F 59% 29.67 in - SW 15.0 mph 25.3 mph N/A   Unknown
5:54 PM 45.0 °F 38.9 °F 30.0 °F 56% 29.74 in - WSW 12.7 mph 20.7 mph N/A   Unknown
6:54 PM 44.1 °F 37.7 °F 30.9 °F 60% 29.76 in - West 12.7 mph 21.9 mph N/A   Unknown
7:54 PM 42.1 °F 35.7 °F 30.9 °F 65% 29.78 in - WSW 11.5 mph - N/A   Unknown
8:54 PM 42.1 °F 35.7 °F 32.0 °F 67% 29.80 in - WSW 11.5 mph - N/A   Unknown
9:54 PM 41.0 °F 34.7 °F 32.0 °F 70% 29.81 in - WSW 10.4 mph - N/A   Unknown
10:54 PM 42.1 °F 36.6 °F 30.9 °F 65% 29.84 in - WSW 9.2 mph - N/A   Unknown
11:54 PM 41.0 °F 34.7 °F 30.9 °F 67% 29.86 in - WSW 10.4 mph - N/A   Unknown